Ashland, MO

1:27 PM CDT on August 26, 2016 (GMT -0500)
Columbia Regional

Weather History for KCOU - August, 2012

Change the Weather History Date:

Friday, August 10, 2012

  Actual Average Record
Temperature  
Mean Temperature 74 °F 77 °F  
Max Temperature 84 °F 88 °F 110 °F (1934)
Min Temperature 63 °F 66 °F 51 °F (1917)
Degree Days  
Heating Degree Days 0 0  
Month to date heating degree days 0 0  
Since 1 June heating degree days 7 11  
Since 1 July heating degree days 0 0  
Cooling Degree Days 9 12  
Month to date cooling degree days 181 120  
Year to date cooling degree days 1475 853  
Since 1 June cooling degree days 1190 750  
Growing Degree Days 24 (Base 50)    
Moisture  
Dew Point 54 °F    
Average Humidity 61    
Maximum Humidity 90    
Minimum Humidity 31    
Precipitation  
Precipitation 0.00 in 0.14 in 3.06 in (1939)
Month to date precipitation 0.18 1.33  
Year to date precipitation 20.48 26.72  
Snow  
Snow 0.00 in 0.00 in 0.00 in (2015)
Month to date snowfall 0.0 0.0  
Since 1 June snowfall 0.0 0.0  
Since 1 July snowfall 0.0 0.0  
Snow Depth 0.00 in    
Sea Level Pressure  
Sea Level Pressure 29.97 in    
Wind  
Wind Speed 9 mph (North)    
Max Wind Speed 18 mph    
Max Gust Speed 23 mph    
Visibility 10 miles    
Events      
T = Trace of Precipitation, MM = Missing Value Source: NWS Daily Summary

Daily Weather History Graph

Daily Weather History Graph

Search for Another Location

Airport or City:

Trip Planner

Search our weather history database for the weather conditions in past years. The results will help you decide how hot, cold, wet, or windy it might be!

Date:

Astronomy

Aug. 10, 2012 Rise Set
Actual Time 6:18 AM CDT 8:09 PM CDT
Civil Twilight 5:49 AM CDT 8:37 PM CDT
Nautical Twilight 5:14 AM CDT 9:12 PM CDT
Astronomical Twilight 4:37 AM CDT 9:49 PM CDT
Moon 12:08 AM CDT (8/10) 2:49 PM CDT (8/10)
Length of Visible Light 14h 48m
Length of Day
13h 50m
Last Quarter, 41% of the Moon is Illuminated
Aug 10
Last Quarter
Aug 17
New
Aug 24
First Quarter
Aug 31
Full
Sep 8
Last Quarter

Hourly Weather History & Observations

Time (CDT) Temp. Dew Point Humidity Pressure Visibility Wind Dir Wind Speed Gust Speed Precip Events Conditions
12:54 AM 69.1 °F 59.0 °F 70% 29.90 in 10.0 mi NW 5.8 mph - N/A   Clear
1:54 AM 69.1 °F 59.0 °F 70% 29.89 in 10.0 mi NW 5.8 mph - N/A   Clear
2:54 AM 66.0 °F 57.9 °F 75% 29.89 in 10.0 mi NNW 5.8 mph - N/A   Clear
3:54 AM 64.0 °F 57.9 °F 80% 29.90 in 10.0 mi North 6.9 mph - N/A   Clear
4:54 AM 63.0 °F 59.0 °F 87% 29.91 in 10.0 mi North 6.9 mph - N/A   Clear
5:54 AM 63.0 °F 59.0 °F 87% 29.93 in 10.0 mi North 8.1 mph - N/A   Partly Cloudy
6:07 AM 62.6 °F 60.8 °F 94% 29.96 in 10.0 mi North 6.9 mph - N/A   Mostly Cloudy
6:54 AM 64.0 °F 60.1 °F 87% 29.96 in 10.0 mi North 10.4 mph - N/A   Overcast
7:39 AM 66.2 °F 59.0 °F 78% 30.00 in 10.0 mi North 9.2 mph - N/A   Overcast
7:54 AM 66.0 °F 59.0 °F 78% 29.99 in 10.0 mi North 15.0 mph 19.6 mph N/A   Overcast
8:54 AM 69.1 °F 55.9 °F 63% 29.99 in 10.0 mi NNE 12.7 mph 18.4 mph N/A   Overcast
9:29 AM 71.6 °F 55.4 °F 57% 30.01 in 10.0 mi NNE 9.2 mph 18.4 mph N/A   Scattered Clouds
9:39 AM 71.6 °F 55.4 °F 57% 30.01 in 10.0 mi NE 12.7 mph 20.7 mph N/A   Mostly Cloudy
9:54 AM 72.0 °F 55.0 °F 55% 29.99 in 10.0 mi NNE 11.5 mph 20.7 mph N/A   Mostly Cloudy
10:19 AM 73.4 °F 55.4 °F 53% 30.02 in 10.0 mi NNE 12.7 mph 18.4 mph N/A   Mostly Cloudy
10:54 AM 73.0 °F 54.0 °F 51% 30.01 in 10.0 mi NNW 16.1 mph 20.7 mph N/A   Mostly Cloudy
11:54 AM 78.1 °F 54.0 °F 43% 30.00 in 10.0 mi NNE 11.5 mph 18.4 mph N/A   Mostly Cloudy
12:54 PM 79.0 °F 52.0 °F 39% 30.00 in 10.0 mi NNE 15.0 mph 23.0 mph N/A   Scattered Clouds
1:54 PM 81.0 °F 51.1 °F 35% 29.99 in 10.0 mi North 10.4 mph 18.4 mph N/A   Partly Cloudy
2:54 PM 79.0 °F 50.0 °F 36% 29.99 in 10.0 mi NNE 9.2 mph 20.7 mph N/A   Scattered Clouds
3:54 PM 84.0 °F 50.0 °F 31% 29.98 in 10.0 mi North 12.7 mph 19.6 mph N/A   Scattered Clouds
4:54 PM 81.0 °F 50.0 °F 34% 29.98 in 10.0 mi North 12.7 mph - N/A   Partly Cloudy
5:54 PM 81.0 °F 51.1 °F 35% 29.98 in 10.0 mi North 10.4 mph 18.4 mph N/A   Scattered Clouds
6:54 PM 79.0 °F 48.9 °F 35% 29.98 in 10.0 mi North 10.4 mph - N/A   Partly Cloudy
7:54 PM 75.0 °F 51.1 °F 43% 29.99 in 10.0 mi NE 5.8 mph - N/A   Clear
8:54 PM 70.0 °F 51.1 °F 51% 30.00 in 10.0 mi NNE 5.8 mph - N/A   Clear
9:54 PM 66.0 °F 51.1 °F 59% 30.01 in 10.0 mi NNE 4.6 mph - N/A   Clear
10:54 PM 64.9 °F 52.0 °F 63% 30.01 in 10.0 mi North 4.6 mph - N/A   Clear
11:54 PM 63.0 °F 51.1 °F 65% 30.01 in 10.0 mi North 4.6 mph - N/A   Clear